Regional Weather Roundup
Issued by NWS

Home | Current Version | Previous Version | Graphics & Text | Print | Product List | Glossary Off
Versions: 1 2 3 4 5 6 7 8 9 10 11 12 13 14 15 16 17 18 19 20 21 22 23 24 25 26 27 28 29 30 31 32 33 34 35 36 37 38 39 40 41 42 43 44 45 46 47 48 49 50

000
ASUS43 KMKX 291811
RWRWI

WISCONSIN REGIONAL WEATHER ROUNDUP
NATIONAL WEATHER SERVICE MILWAUKEE/SULLIVAN WI
100 PM CDT THU SEP 29 2016

NOTE: "FAIR" INDICATES FEW OR NO CLOUDS BELOW 12,000 FEET WITH NO
SIGNIFICANT WEATHER AND/OR OBSTRUCTIONS TO VISIBILITY.

WIZ001-002-006>008-014>016-023>028-291900-
NORTHWEST WISCONSIN

CITY           SKY/WX    TMP DP  RH WIND       PRES   REMARKS
SUPERIOR ARPT  PTSUNNY   58  51  76 NE7       30.52S
6HR MIN TEMP:  52; 6HR MAX TEMP:  60;

ASHLAND        PTSUNNY   58  52  80 NE13      30.51F
6HR MIN TEMP:  43; 6HR MAX TEMP:  61;

HAYWARD        FAIR      62  49  62 NE7       30.48F
6HR MIN TEMP:  49; 6HR MAX TEMP:  62;

SIREN          CLOUDY    60  49  68 NE8       30.49S
6HR MIN TEMP:  39; 6HR MAX TEMP:  61;

CUMBERLAND     FAIR      63  50  63 N7        30.47F
RICE LAKE      FAIR      65  48  55 NE5       30.48S
6HR MIN TEMP:  45; 6HR MAX TEMP:  65;

CHETEK         NOT AVBL
LADYSMITH      FAIR      65  52  61 NE6       30.47F
6HR MIN TEMP:  46; 6HR MAX TEMP:  65;

EAU CLAIRE     FAIR      64  51  62 VRB6      30.44F
6HR MIN TEMP:  49; 6HR MAX TEMP:  64;

MENOMONIE      FAIR      68  49  50 NE5       30.45F
6HR MIN TEMP:  49; 6HR MAX TEMP:  68;

NEW RICHMOND   FAIR      64  50  60 N5        30.47S
6HR MIN TEMP:  44; 6HR MAX TEMP:  64;

OSCEOLA        PTSUNNY   64  51  62 NE3       30.50F
6HR MIN TEMP:  42; 6HR MAX TEMP:  64;

$$

WIZ003>005-009-010-017-018-291900-
NORTH CENTRAL WISCONSIN

CITY           SKY/WX    TMP DP  RH WIND       PRES   REMARKS
MANITOWISH WTR NOT AVBL
ARBOR VITAE    FAIR      62  53  72 N10       30.47F
6HR MIN TEMP:  52; 6HR MAX TEMP:  62;

WOODRUFF       FAIR      62  53  72 N10       30.47F
6HR MIN TEMP:  52; 6HR MAX TEMP:  62;

RHINELANDER    FAIR      65  53  65 MISG      30.46F
6HR MIN TEMP:  48; 6HR MAX TEMP:  65;

EAGLE RIVER    FAIR      62  50  63 NE6       30.46F
6HR MIN TEMP:  49; 6HR MAX TEMP:  62;

LAND O LAKES   FAIR      61  52  73 N12       30.50S
6HR MIN TEMP:  50; 6HR MAX TEMP:  61;

PHILLIPS       FAIR      63  53  69 E7        30.46F
6HR MIN TEMP:  47; 6HR MAX TEMP:  64;

TOMAHAWK       FAIR      64  52  63 N7        30.46F
6HR MIN TEMP:  47; 6HR MAX TEMP:  64;

MEDFORD        FAIR      65  52  64 NE8       30.44S
MERRILL        FAIR      66  53  63 NE10      30.44F
6HR MIN TEMP:  46; 6HR MAX TEMP:  66; 6HR PCP:  0.01;

$$

WIZ029-030-035-036-043>047-291900-
CENTRAL WISCONSIN

CITY           SKY/WX    TMP DP  RH WIND       PRES   REMARKS
WAUSAU         FAIR      67  53  61 N10       30.40F
6HR MIN TEMP:  47; 6HR MAX TEMP:  67;

MOSINEE        SUNNY     66  54  63 N7        30.42F
MARSHFIELD     FAIR      68  51  54 N10       30.41F
6HR MIN TEMP:  50; 6HR MAX TEMP:  68;

STEVENS POINT  FAIR      68  51  55 NE10      30.40F
6HR MIN TEMP:  45; 6HR MAX TEMP:  68;

WAUPACA        FAIR      73  51  45 N12G17    30.37F
6HR MIN TEMP:  51; 6HR MAX TEMP:  73;

WAUTOMA        FAIR      71  51  49 NE12G17   30.36F
6HR MIN TEMP:  51; 6HR MAX TEMP:  71;

WISC RAPIDS    FAIR      70  53  54 NE12      30.40F
6HR MIN TEMP:  49; 6HR MAX TEMP:  70;

CAMP DOUGLAS   SUNNY     70  54  56 N10       30.38S
$$

WIZ011>013-019>022-031-037>040-048>050-291900-
NORTHEAST WISCONSIN

CITY           SKY/WX    TMP DP  RH WIND       PRES   REMARKS
ANTIGO         FAIR      66  52  61 NE8       30.43F
6HR MIN TEMP:  46; 6HR MAX TEMP:  66;

SHAWANO        FAIR      71  53  54 NE10      30.39S
6HR MIN TEMP:  53; 6HR MAX TEMP:  71;

OCONTO         NOT AVBL
STURGEON BAY   FAIR      67  58  72 N16       30.37F
6HR MIN TEMP:  56; 6HR MAX TEMP:  69;

GREEN BAY      FAIR      69  58  67 NE17G24   30.36F
6HR MIN TEMP:  53; 6HR MAX TEMP:  69; 6HR PCP: TRACE;

MANITOWOC      FAIR      67  58  72 NE14G26   30.33S
6HR MIN TEMP:  59; 6HR MAX TEMP:  67;

APPLETON       MOSUNNY   68  48  49 NE17G23   30.35F
CLINTONVILLE   FAIR      70  50  49 NE14G21   30.38S
OSHKOSH        FAIR      67  56  67 N23G30    30.33F
6HR MIN TEMP:  54; 6HR MAX TEMP:  67;

$$

WIZ032>034-041-042-053>061-291900-
SOUTHWEST WISCONSIN

CITY           SKY/WX    TMP DP  RH WIND       PRES   REMARKS
LA CROSSE      FAIR      69  54  58 N8        30.40F
6HR MIN TEMP:  51; 6HR MAX TEMP:  69;

SPARTA         FAIR      67  54  63 N10       30.40S
6HR MIN TEMP:  40; 6HR MAX TEMP:  67;

VIROQUA        FAIR      68  51  53 NE10      30.38F
6HR MIN TEMP:  48; 6HR MAX TEMP:  68;

BOSCOBEL       FAIR      74  51  44 N13       30.34F
6HR MIN TEMP:  49; 6HR MAX TEMP:  74;

PRAIRIE DU CHI FAIR      69  50  50 NW9       30.34F
6HR MIN TEMP:  50; 6HR MAX TEMP:  69;

PLATTEVILLE    FAIR      71  51  50 NE18      30.31F
6HR MIN TEMP:  50; 6HR MAX TEMP:  71;

$$

WIZ056-057-062-063-064-067-068-291900-
SOUTH CENTRAL WISCONSIN

CITY           SKY/WX    TMP DP  RH WIND       PRES   REMARKS
REEDSBURG      NOT AVBL
BARABOO/DELLS  FAIR      70  46  42 NE16G23   30.34S
6HR MIN TEMP:  48; 6HR MAX TEMP:  70;

LONE ROCK      FAIR      70  52  52 NE15G25   30.33F
6HR MIN TEMP:  50; 6HR MAX TEMP:  71;

MINERAL POINT  FAIR      72  50  46 NE16G22   30.32S
MADISON        FAIR      70  54  56 NE17G28   30.30F
6HR MIN TEMP:  52; 6HR MAX TEMP:  70;

MIDDLETON      FAIR      71  52  52 NE17G25   30.31F
6HR MIN TEMP:  53; 6HR MAX TEMP:  71;

WATERTOWN      FAIR      69  54  57 NE18G29   30.28S
6HR MIN TEMP:  54; 6HR MAX TEMP:  70;

MONROE         FAIR      68  52  56 NE24G32   30.28F
JANESVILLE     PTSUNNY   70  55  60 N14G21    30.24F
$$

WIZ051-052-058>065-066-070>072-291900-
SOUTHEAST WISCONSIN

CITY           SKY/WX    TMP DP  RH WIND       PRES   REMARKS
MILWAUKEE      PTSUNNY   64  56  75 N22G30    30.27F
6HR MIN TEMP:  59; 6HR MAX TEMP:  66;

WAUKESHA       CLOUDY    64  55  72 NE17G29   30.29S
MILWAUKEE/TIMM PTSUNNY   64  54  68 NE18G28   30.28S
RACINE         CLOUDY    61  56  83 N15       30.26S
6HR MIN TEMP:  57; 6HR MAX TEMP:  66;

BURLINGTON     CLOUDY    64  52  67 NE17G28   30.26R
6HR MIN TEMP:  57; 6HR MAX TEMP:  66;

KENOSHA        CLOUDY    62  56  80 N13G25    30.25R
6HR MIN TEMP:  59; 6HR MAX TEMP:  64;

FOND DU LAC    FAIR      68  58  70 N20G26    30.33F
6HR MIN TEMP:  57; 6HR MAX TEMP:  68;

SHEBOYGAN      FAIR      67  59  75 NE23G31   30.31S
6HR MIN TEMP:  57; 6HR MAX TEMP:  68;

WEST BEND      PTSUNNY   70  63  78 NE20G26   30.30S
JUNEAU         FAIR      67  57  70 N16G24    30.31F
6HR MIN TEMP:  54; 6HR MAX TEMP:  67;

$$

LSZ147-162-291900-
LAKE SUPERIOR

STATION/POSITION TIME  TEMP    WIND        PRES    WAVE
                       AIR SEA DIR/SP/G            HT/PER
                 (UTC) (F)     (DEG/KT/KT) (MB)    (FT/S)
W MID LAKE BUOY  1750   55 55   30/  6/  8 1033.6S   2/ 4
DEVILS ISLAND    1800   53      40/  9/ 10 1034.1R
SAXON HARBOR     1700   58      30/ 10/ 12 1032.8S
$$

LMZ867-665-643>646-291900-
LAKE MICHIGAN

STATION/POSITION TIME  TEMP    WIND        PRES    WAVE
                       AIR SEA DIR/SP/G            HT/PER
                 (UTC) (F)     (DEG/KT/KT) (MB)    (FT/S)
CHAMBERS ISLAND  1700   63      10/ 16/ 19 1028.8R
S GREEN BAY BUOY 1730   62 63   40/ 19/ 21 1027.9
N MID LAKE BUOY  1750   62 66   40/ 17/ 21 1028.4S   3/ 5
NORTHPORT PIER   1700   65      30/  7/ 12 1029.1R
SISTER BAY       1708   71     360/ 14/ 18   N/A
KEWAUNEE LAKESHO 1700   62      10/ 10/ 17 1027.2F
SHEBOYGANC1F1C2F2C3F3C4F4C5F5C6F6C7F7C8M1C9M2Ca!



USA.gov is the U.S. government's official web portal to all federal, state and local government web resources and services.